Location: *
(43.9905°S, 176.4941°W)
Time: 21:17:10
(UTC+00:00)

SL-08 RB Rocket - Pass Details

Date: 08 December 2019
Orbit: 647 x 684 km, 97.8° (Epoch: 17 January)

Event Time Altitude Azimuth Distance (km) Brightness Sun altitude
Rises 09:01:17 0° 170° (S) 3,019 7.8 -14.3°
Reaches altitude 10° 09:03:32 10° 172° (S) 2,095 6.9 -14.5°
Maximum altitude 09:08:05 70° 254° (WSW) 705 4.0 -15.0°
Drops below altitude 10° 09:12:33 10° 337° (NNW) 2,059 5.9 -15.5°
Enters shadow 09:12:56 - 338° (NNW) 2,216 6.1 -15.5°
